Location: Clyde
(45.1830°S, 169.3170°E)
Time: 23:22:01
(UTC+12:00)

Daily predictions for brighter satellites

Satellite Brightness Start Highest point End
(mag) Time Altitude Azimuth Time Altitude Azimuth Time Altitude Azimuth
Cosmos 2219 Rocket 2.3 17:46:37 10° N 17:52:08 60° ENE 17:57:42 10° SSE
Cosmos 1953 Rocket 3.8 17:49:53 10° N 17:54:16 56° E 17:58:45 10° SSE
Cosmos 1825 Rocket 3.6 17:49:49 10° N 17:54:16 85° E 17:58:45 10° S
Nadezhda 4 Rocket 4.1 17:48:53 10° N 17:54:54 61° E 18:01:03 10° SSE
Cosmos 2058 3.8 17:57:21 10° NNE 18:00:58 30° E 18:04:39 10° SSE
Atlas Centaur 2 4.2 17:58:28 10° NNW 18:02:03 18° N 18:06:09 10° NE
Cosmos-2242 3.7 17:57:44 10° SSW 18:02:08 63° W 18:06:27 10° N
Cosmos 1486 Rocket 4.1 17:56:55 10° SSW 18:02:16 89° WNW 18:07:35 10° NNE
COSMO-SKYMED 1 2.9 18:01:30 10° N 18:05:53 73° WNW 18:10:19 10° SSW
CENTAUR R/B 3.5 17:58:55 10° WNW 18:06:41 53° SW 18:13:18 10° SSE
Cosmos 1992 Rocket 4.0 18:01:47 10° NNW 18:07:02 77° ENE 18:12:22 10° SSE
H-2A R/B 2.8 18:03:47 10° N 18:07:53 56° WNW 18:12:00 10° SSW
CZ-2C R/B 3.0 18:02:35 10° NE 18:08:01 49° ESE 18:13:26 10° S
ADEOS 3.8 18:03:37 10° SSE 18:08:56 76° WSW 18:14:11 10° NNW
USA 234 3.5 18:03:26 10° SE 18:09:58 59° NE 18:16:26 10° NW
Cosmos 1825 2.6 18:07:19 10° NNE 18:10:55 42° E 18:14:34 10° SSE
Cosmos 1842 Rocket 4.0 18:09:03 10° S 18:13:17 39° ESE 18:17:29 10° NE
Cosmos 1408 2.6 18:10:37 10° N 18:14:21 84° E 18:18:10 10° S
Cosmos 1980 4.5 18:11:29 10° NNE 18:16:25 31° ENE 18:21:23 10° SE
Cosmos 405 Rocket 3.5 18:13:18 10° NNE 18:16:38 31° E 18:20:04 10° SSE
Envisat 3.0 18:13:19 10° SSE 18:18:31 77° ENE 18:23:37 10° N
IRIDIUM 106 4.3 18:19:37 10° S 18:24:55 64° E 18:30:07 10° NNE
Cosmos 1356 3.8 18:22:57 10° NNE 18:26:13 42° E 18:29:32 10° SSE
Cosmos 1437 Rocket 3.5 18:23:02 10° S 18:26:24 28° ESE 18:29:42 10° NE
SL-16 R/B 3.9 18:26:20 10° ENE 18:28:38 13° E 18:28:38 13° E
Cosmos 2221 2.5 18:24:37 10° S 18:28:55 57° ESE 18:33:08 10° NNE
Cosmos 2322 4.3 18:23:42 10° NW 18:29:22 61° WSW 18:35:07 10° SSE
CZ-4B R/B 1.7 18:28:31 10° N 18:31:34 63° WNW 18:34:42 10° SSW
Cosmos 1606 3.4 18:30:01 10° S 18:33:30 31° ESE 18:36:55 10° NE
SL-8 R/B 4.2 18:30:49 10° NW 18:35:28 47° NNE 18:38:38 19° E
Cosmos 1689 Rocket 2.6 18:34:10 10° NE 18:36:49 33° ESE 18:39:31 10° S
ATLAS 3B R/B 3.0 18:31:12 10° NNW 18:38:36 63° ENE 18:45:30 12° SE
Meteor 2-15 Rocket 4.4 18:34:40 10° S 18:40:49 63° ESE 18:46:52 10° NNE
Cosmos 2333 Rocket 3.1 18:39:00 10° NW 18:44:28 49° WSW 18:50:02 10° SSE
PSLV R/B 3.9 18:40:52 10° NNE 18:45:03 89° E 18:49:16 10° SSW
YAOGAN 6 3.7 18:43:04 10° S 18:46:29 44° WSW 18:49:53 10° NW
Cosmos 1461 3.6 18:44:31 10° SSW 18:48:30 35° SE 18:50:14 25° E
Cosmos 1076 Rocket 3.6 18:46:42 10° N 18:50:53 53° E 18:55:10 10° SSE
Cosmos 1553 Rocket 4.1 18:45:01 10° S 18:51:00 49° ESE 18:56:53 10° NNE
Cosmos 1777 Rocket 4.0 18:46:45 10° SSW 18:52:02 61° ESE 18:57:14 10° NE
Genesis I 3.1 18:53:09 10° NNW 18:57:07 77° NE 18:59:04 28° SE
CZ-4B R/B 4.3 18:53:23 10° S 18:57:42 43° WSW 19:01:49 10° NW
PSLV R/B 3.6 18:54:19 10° SSE 18:58:12 79° ENE 19:01:57 10° N
deb Chang Zheng 4 3.8 18:53:58 10° S 18:58:23 74° WSW 19:02:44 10° NNW
Cosmos 2237 Rocket 2.2 18:52:56 10° N 18:58:32 64° ENE 19:03:16 15° SSE
Cosmos 2098 Rocket 3.6 18:56:53 10° NNW 19:00:01 39° W 19:02:54 10° S
CZ-2C R/B 3.3 18:59:03 21° SE 19:01:43 37° E 19:06:08 10° NNE
CORIOLIS 4.2 18:57:31 10° SSE 19:02:57 57° E 19:08:21 10° N
Cosmos 2151 3.3 19:00:48 10° NNE 19:04:47 41° E 19:05:44 35° ESE
SJ 16-02 1.9 19:02:16 10° S 19:06:24 36° ESE 19:06:30 36° ESE
Okean O Rocket 2.1 19:06:03 34° ESE 19:07:01 39° E 19:11:14 10° NNE
ERS-2 2.0 19:03:43 10° NNE 19:07:23 67° ESE 19:11:06 10° S
NOAA 12 4.1 19:02:03 10° SSE 19:07:30 85° ENE 19:12:49 10° NNW
BREEZE-M DEB 1.8 19:06:34 10° WNW 19:09:24 74° WSW 19:09:24 74° WSW
ATLAS CENTAUR R/B 3.0 19:07:57 10° SSW 19:10:37 21° SSE 19:10:37 21° SSE
Cosmos 1633 2.4 19:10:29 10° N 19:14:01 63° E 19:14:15 61° ESE
Cosmos 1943 Rocket 3.1 19:11:20 10° S 19:15:54 28° SE 19:15:54 28° SE
Radarsat 4.5 19:12:40 10° SSE 19:17:59 78° ENE 19:23:14 10° N
Cosmos 2278 Rocket 2.7 19:15:59 10° SSW 19:21:39 62° WNW 19:27:15 10° N
Cosmos 1655 Rocket 4.1 19:15:41 10° NNE 19:21:45 50° E 19:27:56 10° SSE
SAR-Lupe-4 4.0 19:19:35 10° N 19:23:10 65° WNW 19:26:49 10° SSW
Cosmos 1939 Rocket 2.8 19:23:03 29° SSE 19:25:09 82° ENE 19:29:20 10° N
NOSS 0 Rocket 4.3 19:20:15 10° NW 19:26:27 67° WSW 19:31:59 14° SSE
Cosmos 2292 Rocket 3.7 19:23:01 10° N 19:27:11 84° E 19:32:52 10° S
Meteor 2-3 Rocket 3.8 19:21:58 10° NNE 19:27:24 52° E 19:29:41 33° SE
Cosmos 2369 Rocket 3.8 19:23:14 10° S 19:25:49 18° SSE 19:25:49 18° SSE
CZ-4B R/B 3.0 19:24:12 13° SSE 19:28:57 69° ENE 19:34:15 10° N
COSMOS 2428 4.3 19:25:24 10° WNW 19:30:30 33° SW 19:35:40 10° S
PAYLOAD B 4.3 19:25:58 10° SSE 19:31:39 81° WSW 19:37:14 10° NNW
H-2A R/B 3.4 19:33:35 31° N 19:33:35 31° N 19:35:44 10° N
Lacrosse 5 1.8 19:28:58 10° SW 19:34:07 67° SE 19:34:45 60° E
Cosmos 1242 Rocket 4.2 19:32:00 10° S 19:33:40 25° S 19:33:40 25° S
Cosmos 2219 Rocket 4.1 19:31:54 10° WNW 19:36:30 25° SW 19:41:08 10° S
SMAP 3.8 19:34:01 10° S 19:38:39 53° WSW 19:43:13 10° NNW
Meteor 2-21 Rocket 4.4 19:34:10 10° N 19:40:18 62° E 19:46:30 10° SSE
Atlas Centaur 2 4.3 19:46:02 10° NW 19:50:12 19° N 19:52:48 15° NNE
USA 234 3.7 19:50:02 32° SSE 19:52:55 54° SSW 19:59:19 10° WNW
Cosmos 883 Rocket 4.3 19:50:03 10° S 19:56:17 68° E 19:56:26 67° E
Cosmos 1867 3.9 19:52:40 10° SSW 19:57:04 53° S 19:57:04 53° S
CENTAUR R/B 4.5 19:53:38 10° WSW 19:58:47 20° SSW 20:02:04 14° SSE
SL-16 R/B 2.5 20:06:10 10° NNW 20:10:35 57° NNW 20:10:35 57° NNW
BREEZE-M DEB (TANK) 3.9 20:07:18 10° W 20:14:26 62° SW 20:14:26 62° SW
Cosmos 2266 Rocket 4.0 20:09:13 10° NNW 20:15:17 77° W 20:21:31 10° S
Cosmos 2297 4.1 20:17:36 10° SSW 20:22:23 60° SW 20:22:23 60° SW
ATLAS CENTAUR R/B 4.3 20:09:33 10° WNW 20:26:44 54° SSW 20:29:37 39° SSE
ATLAS 3B R/B 3.9 20:22:47 10° WNW 20:29:45 39° SW 20:32:46 28° S
Cosmos 2315 Rocket 4.5 20:25:37 10° S 20:30:20 53° SSW 20:30:20 53° SSW
Cosmos 2237 Rocket 4.1 20:38:27 10° WNW 20:43:05 25° SW 20:45:08 20° SSW
Okean O Rocket 3.8 20:43:31 24° WSW 20:43:31 24° WSW 20:46:44 10° WNW
SJ 16-02 3.7 20:41:13 10° SW 20:43:33 21° WSW 20:43:33 21° WSW
ATLAS CENTAUR R/B 4.4 20:46:28 10° SW 20:46:47 12° SW 20:46:47 12° SW
Cosmos 1943 Rocket 3.9 20:54:44 10° SW 20:57:28 28° SW 20:57:28 28° SW
Cosmos 2369 Rocket 4.5 21:06:26 10° SSW 21:07:37 17° SSW 21:07:37 17° SSW
Lacrosse 5 4.5 21:12:32 10° WSW 21:13:59 17° W 21:13:59 17° W
